START_TIME,STEP,MOV.,A39,t_acc.,A33,t_acc.,P32,t_acc.,P31,t_acc.
1981-08-30 09:00:23.250 ,6,0,0.,0.8,0.,0.8,0.,0.8,4.,0.8
1981-08-30 09:00:24.050 ,6,0,0.,0.8,0.,0.8,0.,0.8,2.,0.8
1981-08-30 09:00:24.850 ,6,0,0.,0.8,0.,0.8,0.,0.8,7.,0.8
1981-08-30 09:00:25.650 ,6,0,0.,0.8,0.,0.8,0.,0.8,1.,0.8
1981-08-30 09:00:26.450 ,6,0,0.,0.8,0.,0.8,0.,0.8,2.,0.8
1981-08-30 09:00:27.250 ,6,0,0.,0.8,0.,0.8,0.,0.8,2.,0.8
1981-08-30 09:00:28.050 ,6,0,0.,0.8,0.,0.8,0.,0.8,3.,0.8
1981-08-30 09:00:28.850 ,6,0,0.,0.8,0.,0.8,0.,0.8,1.,0.8
1981-08-30 09:00:29.650 ,6,0,0.,0.8,0.,0.8,0.,0.8,7.,0.8
1981-08-30 09:00:30.450 ,6,0,0.,0.8,0.,0.8,0.,0.8,1.,0.8
1981-08-30 09:00:31.250 ,6,0,0.,0.8,0.,0.8,0.,0.8,3.,0.8
1981-08-30 09:00:32.050 ,6,0,0.,0.8,0.,0.8,0.,0.8,4.,0.8
1981-08-30 09:00:32.850 ,6,0,0.,0.8,0.,0.8,0.,0.8,1.,0.8
1981-08-30 09:00:33.650 ,6,0,0.,0.8,0.,0.8,0.,0.8,3.,0.8
1981-08-30 09:00:34.450 ,6,0,0.,0.8,0.,0.8,0.,0.8,6.,0.8
1981-08-30 09:00:35.250 ,6,0,0.,0.8,0.,0.8,0.,0.8,3.,0.8
1981-08-30 09:00:36.050 ,6,0,0.,0.8,0.,0.8,0.,0.8,2.,0.8
1981-08-30 09:00:36.850 ,6,0,0.,0.8,0.,0.8,0.,0.8,2.,0.8
1981-08-30 09:00:37.650 ,6,0,0.,0.8,0.,0.8,0.,0.8,3.,0.8
1981-08-30 09:00:38.450 ,6,0,0.,0.8,0.,0.8,0.,0.8,1.,0.8
1981-08-30 09:00:39.250 ,6,0,0.,0.8,0.,0.8,0.,0.8,1.,0.8
1981-08-30 09:00:40.050 ,6,0,0.,0.8,0.,0.8,0.,0.8,4.,0.8
1981-08-30 09:00:40.850 ,6,0,0.,0.8,0.,0.8,0.,0.8,1.,0.8
1981-08-30 09:00:41.650 ,6,0,0.,0.8,0.,0.8,0.,0.8,4.,0.8
1981-08-30 09:00:42.450 ,6,0,0.,0.8,0.,0.8,0.,0.8,2.,0.8
1981-08-30 09:00:43.250 ,6,0,0.,0.8,0.,0.8,0.,0.8,5.,0.8
1981-08-30 09:00:44.050 ,6,0,0.,0.8,0.,0.8,0.,0.8,3.,0.8
1981-08-30 09:00:44.850 ,6,0,0.,0.8,0.,0.8,0.,0.8,3.,0.8
1981-08-30 09:00:45.650 ,6,0,0.,0.8,0.,0.8,0.,0.8,3.,0.8
1981-08-30 09:00:46.450 ,6,0,0.,0.8,0.,0.8,0.,0.8,4.,0.8
1981-08-30 09:00:47.250 ,7,0,0.,0.8,0.,0.8,0.,0.8,0.,0.8
1981-08-30 09:00:48.050 ,7,0,0.,0.8,0.,0.8,0.,0.8,3.,0.8
1981-08-30 09:00:48.850 ,7,0,0.,0.8,0.,0.8,0.,0.8,1.,0.8
1981-08-30 09:00:49.650 ,7,0,0.,0.8,0.,0.8,0.,0.8,2.,0.8
1981-08-30 09:00:50.450 ,7,0,0.,0.8,0.,0.8,0.,0.8,5.,0.8
1981-08-30 09:00:51.250 ,7,0,0.,0.8,0.,0.8,0.,0.8,6.,0.8
1981-08-30 09:00:52.050 ,7,0,0.,0.8,0.,0.8,0.,0.8,2.,0.8
1981-08-30 09:00:52.850 ,7,0,0.,0.8,0.,0.8,0.,0.8,3.,0.8
1981-08-30 09:00:53.650 ,7,0,0.,0.8,0.,0.8,0.,0.8,3.,0.8
1981-08-30 09:00:54.450 ,7,0,0.,0.8,0.,0.8,0.,0.8,4.,0.8
1981-08-30 09:00:55.250 ,7,0,0.,0.8,0.,0.8,0.,0.8,2.,0.8
1981-08-30 09:00:56.050 ,7,0,0.,0.8,0.,0.8,0.,0.8,3.,0.8
1981-08-30 09:00:56.850 ,7,0,0.,0.8,0.,0.8,0.,0.8,1.,0.8
1981-08-30 09:00:57.650 ,7,0,0.,0.8,0.,0.8,0.,0.8,4.,0.8
1981-08-30 09:00:58.450 ,7,0,0.,0.8,0.,0.8,0.,0.8,1.,0.8
1981-08-30 09:00:59.250 ,7,0,0.,0.8,0.,0.8,0.,0.8,1.,0.8
1981-08-30 09:01:00.050 ,7,0,0.,0.8,0.,0.8,0.,0.8,3.,0.8
1981-08-30 09:01:00.850 ,7,0,0.,0.8,0.,0.8,0.,0.8,4.,0.8
1981-08-30 09:01:01.650 ,7,0,0.,0.8,0.,0.8,0.,0.8,2.,0.8
1981-08-30 09:01:02.450 ,7,0,0.,0.8,0.,0.8,0.,0.8,1.,0.8
1981-08-30 09:01:03.250 ,7,0,0.,0.8,0.,0.8,0.,0.8,3.,0.8
1981-08-30 09:01:04.050 ,7,0,0.,0.8,0.,0.8,0.,0.8,3.,0.8
1981-08-30 09:01:04.850 ,7,0,0.,0.8,0.,0.8,0.,0.8,2.,0.8
1981-08-30 09:01:05.650 ,7,0,0.,0.8,0.,0.8,0.,0.8,2.,0.8
1981-08-30 09:01:06.450 ,7,0,0.,0.8,0.,0.8,0.,0.8,0.,0.8
1981-08-30 09:01:07.250 ,7,0,0.,0.8,0.,0.8,0.,0.8,4.,0.8
1981-08-30 09:01:08.050 ,7,0,0.,0.8,0.,0.8,0.,0.8,2.,0.8
1981-08-30 09:01:08.850 ,7,0,0.,0.8,0.,0.8,0.,0.8,2.,0.8
1981-08-30 09:01:09.650 ,7,0,0.,0.8,0.,0.8,0.,0.8,2.,0.8
1981-08-30 09:01:10.450 ,7,0,0.,0.8,0.,0.8,0.,0.8,2.,0.8
1981-08-30 09:01:11.250 ,7,0,0.,0.8,0.,0.8,0.,0.8,3.,0.8
1981-08-30 09:01:12.050 ,7,0,0.,0.8,0.,0.8,0.,0.8,6.,0.8
1981-08-30 09:01:12.850 ,7,0,0.,0.8,0.,0.8,0.,0.8,3.,0.8
1981-08-30 09:01:13.650 ,7,0,0.,0.8,0.,0.8,0.,0.8,7.,0.8
1981-08-30 09:01:14.450 ,7,0,0.,0.8,0.,0.8,0.,0.8,6.,0.8
1981-08-30 09:01:15.250 ,7,0,0.,0.8,0.,0.8,0.,0.8,2.,0.8
1981-08-30 09:01:16.050 ,7,0,0.,0.8,0.,0.8,0.,0.8,1.,0.8
1981-08-30 09:01:16.850 ,7,0,0.,0.8,0.,0.8,0.,0.8,2.,0.8
1981-08-30 09:01:17.650 ,7,0,0.,0.8,0.,0.8,0.,0.8,5.,0.8
1981-08-30 09:01:18.450 ,7,0,0.,0.8,0.,0.8,0.,0.8,2.,0.8
1981-08-30 09:01:19.250 ,7,0,0.,0.8,0.,0.8,0.,0.8,3.,0.8
1981-08-30 09:01:20.050 ,7,0,0.,0.8,0.,0.8,0.,0.8,7.,0.8
1981-08-30 09:01:20.850 ,7,0,0.,0.8,0.,0.8,0.,0.8,2.,0.8
1981-08-30 09:01:21.650 ,7,0,0.,0.8,0.,0.8,0.,0.8,6.,0.8
1981-08-30 09:01:22.450 ,7,0,0.,0.8,0.,0.8,0.,0.8,3.,0.8
1981-08-30 09:01:23.250 ,7,0,0.,0.8,0.,0.8,0.,0.8,5.,0.8
1981-08-30 09:01:24.050 ,7,0,0.,0.8,0.,0.8,0.,0.8,8.,0.8
1981-08-30 09:01:24.850 ,7,0,0.,0.8,0.,0.8,0.,0.8,0.,0.8
1981-08-30 09:01:25.650 ,7,0,0.,0.8,0.,0.8,0.,0.8,4.,0.8
1981-08-30 09:01:26.450 ,7,0,0.,0.8,0.,0.8,0.,0.8,4.,0.8
1981-08-30 09:01:27.250 ,7,0,0.,0.8,0.,0.8,0.,0.8,9.,0.8
1981-08-30 09:01:28.050 ,7,0,0.,0.8,0.,0.8,0.,0.8,4.,0.8
1981-08-30 09:01:28.850 ,7,0,0.,0.8,0.,0.8,0.,0.8,3.,0.8
1981-08-30 09:01:29.650 ,7,0,0.,0.8,0.,0.8,0.,0.8,2.,0.8
1981-08-30 09:01:30.450 ,7,0,0.,0.8,0.,0.8,0.,0.8,3.,0.8
1981-08-30 09:01:31.250 ,7,0,0.,0.8,0.,0.8,0.,0.8,2.,0.8
1981-08-30 09:01:32.050 ,7,0,0.,0.8,0.,0.8,0.,0.8,5.,0.8
1981-08-30 09:01:32.850 ,7,0,0.,0.8,0.,0.8,0.,0.8,5.,0.8
1981-08-30 09:01:33.650 ,7,0,0.,0.8,0.,0.8,0.,0.8,4.,0.8
1981-08-30 09:01:34.450 ,7,0,0.,0.8,0.,0.8,0.,0.8,5.,0.8
1981-08-30 09:01:35.250 ,6,0,0.,0.8,0.,0.8,0.,0.8,2.,0.8
1981-08-30 09:01:36.050 ,6,0,0.,0.8,0.,0.8,0.,0.8,1.,0.8
1981-08-30 09:01:36.850 ,6,0,0.,0.8,0.,0.8,0.,0.8,2.,0.8
1981-08-30 09:01:37.650 ,6,0,0.,0.8,0.,0.8,0.,0.8,2.,0.8
1981-08-30 09:01:38.450 ,6,0,0.,0.8,0.,0.8,0.,0.8,0.,0.8
1981-08-30 09:01:39.250 ,6,0,0.,0.8,0.,0.8,0.,0.8,4.,0.8
1981-08-30 09:01:40.050 ,6,0,0.,0.8,0.,0.8,0.,0.8,2.,0.8
1981-08-30 09:01:40.850 ,6,0,0.,0.8,0.,0.8,0.,0.8,3.,0.8
1981-08-30 09:01:41.650 ,6,0,0.,0.8,0.,0.8,0.,0.8,10.,0.8
1981-08-30 09:01:42.450 ,6,0,0.,0.8,0.,0.8,0.,0.8,3.,0.8
1981-08-30 09:01:43.250 ,6,0,0.,0.8,0.,0.8,0.,0.8,3.,0.8
1981-08-30 09:01:44.050 ,6,0,0.,0.8,0.,0.8,0.,0.8,1.,0.8
1981-08-30 09:01:44.850 ,6,0,0.,0.8,0.,0.8,0.,0.8,5.,0.8
1981-08-30 09:01:45.650 ,6,0,0.,0.8,0.,0.8,0.,0.8,3.,0.8
1981-08-30 09:01:46.450 ,6,0,0.,0.8,0.,0.8,0.,0.8,4.,0.8
1981-08-30 09:01:47.250 ,6,0,0.,0.8,0.,0.8,0.,0.8,1.,0.8
1981-08-30 09:01:48.050 ,6,0,0.,0.8,0.,0.8,0.,0.8,4.,0.8
1981-08-30 09:01:48.850 ,6,0,0.,0.8,0.,0.8,0.,0.8,3.,0.8
1981-08-30 09:01:49.650 ,6,0,0.,0.8,0.,0.8,0.,0.8,1.,0.8
1981-08-30 09:01:50.450 ,6,0,0.,0.8,0.,0.8,0.,0.8,4.,0.8
1981-08-30 09:01:51.250 ,6,0,0.,0.8,0.,0.8,0.,0.8,6.,0.8
1981-08-30 09:01:52.050 ,6,0,0.,0.8,0.,0.8,0.,0.8,6.,0.8
1981-08-30 09:01:52.850 ,6,0,0.,0.8,0.,0.8,0.,0.8,4.,0.8
1981-08-30 09:01:53.650 ,6,0,0.,0.8,0.,0.8,0.,0.8,1.,0.8
1981-08-30 09:01:54.450 ,6,0,0.,0.8,0.,0.8,0.,0.8,6.,0.8
1981-08-30 09:01:55.250 ,6,0,0.,0.8,0.,0.8,0.,0.8,4.,0.8
1981-08-30 09:01:56.050 ,6,0,0.,0.8,0.,0.8,0.,0.8,2.,0.8
1981-08-30 09:01:56.850 ,6,0,0.,0.8,0.,0.8,0.,0.8,3.,0.8
1981-08-30 09:01:57.650 ,6,0,0.,0.8,0.,0.8,0.,0.8,1.,0.8
1981-08-30 09:01:58.450 ,6,0,0.,0.8,0.,0.8,0.,0.8,1.,0.8
1981-08-30 09:01:59.250 ,5,0,0.,0.8,0.,0.8,0.,0.8,1.,0.8
1981-08-30 09:02:00.050 ,5,0,0.,0.8,0.,0.8,0.,0.8,4.,0.8
1981-08-30 09:02:00.850 ,5,0,0.,0.8,0.,0.8,0.,0.8,2.,0.8
1981-08-30 09:02:01.650 ,5,0,0.,0.8,0.,0.8,0.,0.8,0.,0.8
1981-08-30 09:02:02.450 ,5,0,0.,0.8,0.,0.8,0.,0.8,5.,0.8
1981-08-30 09:02:03.250 ,5,0,0.,0.8,0.,0.8,0.,0.8,4.,0.8
1981-08-30 09:02:04.050 ,5,0,0.,0.8,0.,0.8,0.,0.8,4.,0.8
1981-08-30 09:02:04.850 ,5,0,0.,0.8,0.,0.8,0.,0.8,4.,0.8
1981-08-30 09:02:05.650 ,5,0,0.,0.8,0.,0.8,0.,0.8,0.,0.8
1981-08-30 09:02:06.450 ,5,0,0.,0.8,0.,0.8,0.,0.8,3.,0.8
1981-08-30 09:02:07.250 ,5,0,0.,0.8,0.,0.8,0.,0.8,5.,0.8
1981-08-30 09:02:08.050 ,5,0,0.,0.8,0.,0.8,0.,0.8,3.,0.8
1981-08-30 09:02:08.850 ,5,0,0.,0.8,0.,0.8,0.,0.8,8.,0.8
1981-08-30 09:02:09.650 ,5,0,0.,0.8,0.,0.8,0.,0.8,3.,0.8
1981-08-30 09:02:10.450 ,5,0,0.,0.8,0.,0.8,0.,0.8,6.,0.8
1981-08-30 09:02:11.250 ,5,0,0.,0.8,0.,0.8,0.,0.8,0.,0.8
1981-08-30 09:02:12.050 ,5,0,0.,0.8,0.,0.8,0.,0.8,3.,0.8
1981-08-30 09:02:12.850 ,5,0,0.,0.8,0.,0.8,0.,0.8,4.,0.8
1981-08-30 09:02:13.650 ,5,0,0.,0.8,0.,0.8,0.,0.8,1.,0.8
1981-08-30 09:02:14.450 ,5,0,0.,0.8,0.,0.8,0.,0.8,1.,0.8
1981-08-30 09:02:15.250 ,5,0,0.,0.8,0.,0.8,0.,0.8,1.,0.8
1981-08-30 09:02:16.050 ,5,0,0.,0.8,0.,0.8,0.,0.8,6.,0.8
1981-08-30 09:02:16.850 ,5,0,0.,0.8,0.,0.8,0.,0.8,3.,0.8
1981-08-30 09:02:17.650 ,5,0,0.,0.8,0.,0.8,0.,0.8,1.,0.8
1981-08-30 09:02:18.450 ,5,0,0.,0.8,0.,0.8,0.,0.8,4.,0.8
1981-08-30 09:02:19.250 ,5,0,0.,0.8,0.,0.8,0.,0.8,2.,0.8
1981-08-30 09:02:20.050 ,5,0,0.,0.8,0.,0.8,0.,0.8,3.,0.8
1981-08-30 09:02:20.850 ,5,0,0.,0.8,0.,0.8,0.,0.8,5.,0.8
1981-08-30 09:02:21.650 ,5,0,0.,0.8,0.,0.8,0.,0.8,3.,0.8
1981-08-30 09:02:22.450 ,5,0,0.,0.8,0.,0.8,0.,0.8,4.,0.8
1981-08-30 09:02:23.250 ,4,0,0.,0.8,0.,0.8,0.,0.8,6.,0.8
1981-08-30 09:02:24.050 ,4,0,0.,0.8,0.,0.8,0.,0.8,4.,0.8
1981-08-30 09:02:24.850 ,4,0,0.,0.8,0.,0.8,0.,0.8,1.,0.8
1981-08-30 09:02:25.650 ,4,0,0.,0.8,0.,0.8,0.,0.8,2.,0.8
1981-08-30 09:02:26.450 ,4,0,0.,0.8,0.,0.8,0.,0.8,1.,0.8
1981-08-30 09:02:27.250 ,4,0,0.,0.8,0.,0.8,0.,0.8,5.,0.8
1981-08-30 09:02:28.050 ,4,0,0.,0.8,0.,0.8,0.,0.8,3.,0.8
1981-08-30 09:02:28.850 ,4,0,0.,0.8,0.,0.8,0.,0.8,0.,0.8
1981-08-30 09:02:29.650 ,4,0,0.,0.8,0.,0.8,0.,0.8,4.,0.8
1981-08-30 09:02:30.450 ,4,0,0.,0.8,0.,0.8,0.,0.8,5.,0.8
1981-08-30 09:02:31.250 ,4,0,0.,0.8,0.,0.8,0.,0.8,5.,0.8
1981-08-30 09:02:32.050 ,4,0,0.,0.8,0.,0.8,0.,0.8,1.,0.8
1981-08-30 09:02:32.850 ,4,0,0.,0.8,0.,0.8,0.,0.8,2.,0.8
1981-08-30 09:02:33.650 ,4,0,0.,0.8,0.,0.8,0.,0.8,1.,0.8
1981-08-30 09:02:34.450 ,4,0,0.,0.8,0.,0.8,0.,0.8,3.,0.8
1981-08-30 09:02:35.250 ,4,0,0.,0.8,0.,0.8,0.,0.8,3.,0.8
1981-08-30 09:02:36.050 ,4,0,0.,0.8,0.,0.8,0.,0.8,1.,0.8
1981-08-30 09:02:36.850 ,4,0,0.,0.8,0.,0.8,0.,0.8,1.,0.8
1981-08-30 09:02:37.650 ,4,0,0.,0.8,0.,0.8,0.,0.8,3.,0.8
1981-08-30 09:02:38.450 ,4,0,0.,0.8,0.,0.8,0.,0.8,3.,0.8
1981-08-30 09:02:39.250 ,4,0,0.,0.8,0.,0.8,0.,0.8,2.,0.8
1981-08-30 09:02:40.050 ,4,0,0.,0.8,0.,0.8,0.,0.8,3.,0.8
1981-08-30 09:02:40.850 ,4,0,0.,0.8,0.,0.8,0.,0.8,4.,0.8
1981-08-30 09:02:41.650 ,4,0,0.,0.8,0.,0.8,0.,0.8,2.,0.8
1981-08-30 09:02:42.450 ,4,0,0.,0.8,0.,0.8,0.,0.8,2.,0.8
1981-08-30 09:02:43.250 ,4,0,0.,0.8,0.,0.8,0.,0.8,4.,0.8
1981-08-30 09:02:44.050 ,4,0,0.,0.8,0.,0.8,0.,0.8,5.,0.8
1981-08-30 09:02:44.850 ,4,0,0.,0.8,0.,0.8,0.,0.8,5.,0.8
1981-08-30 09:02:45.650 ,4,0,0.,0.8,0.,0.8,0.,0.8,3.,0.8
1981-08-30 09:02:46.450 ,4,0,0.,0.8,0.,0.8,0.,0.8,3.,0.8
1981-08-30 09:02:47.250 ,3,0,0.,0.8,0.,0.8,0.,0.8,4.,0.8
1981-08-30 09:02:48.050 ,3,0,0.,0.8,0.,0.8,0.,0.8,4.,0.8
1981-08-30 09:02:48.850 ,3,0,0.,0.8,0.,0.8,0.,0.8,3.,0.8
1981-08-30 09:02:49.650 ,3,0,0.,0.8,0.,0.8,0.,0.8,4.,0.8
1981-08-30 09:02:50.450 ,3,0,0.,0.8,0.,0.8,0.,0.8,3.,0.8
1981-08-30 09:02:51.250 ,3,0,0.,0.8,0.,0.8,0.,0.8,0.,0.8
1981-08-30 09:02:52.050 ,3,0,0.,0.8,0.,0.8,0.,0.8,1.,0.8
1981-08-30 09:02:52.850 ,3,0,0.,0.8,0.,0.8,0.,0.8,6.,0.8
1981-08-30 09:02:53.650 ,3,0,0.,0.8,0.,0.8,0.,0.8,4.,0.8
1981-08-30 09:02:54.450 ,3,0,0.,0.8,0.,0.8,0.,0.8,1.,0.8
1981-08-30 09:02:55.250 ,3,0,0.,0.8,0.,0.8,0.,0.8,8.,0.8
1981-08-30 09:02:56.050 ,3,0,0.,0.8,0.,0.8,0.,0.8,3.,0.8
1981-08-30 09:02:56.850 ,3,0,0.,0.8,0.,0.8,0.,0.8,0.,0.8
1981-08-30 09:02:57.650 ,3,0,0.,0.8,0.,0.8,0.,0.8,2.,0.8
1981-08-30 09:02:58.450 ,3,0,0.,0.8,0.,0.8,0.,0.8,3.,0.8
1981-08-30 09:02:59.250 ,3,0,0.,0.8,0.,0.8,0.,0.8,1.,0.8
1981-08-30 09:03:00.050 ,3,0,0.,0.8,0.,0.8,0.,0.8,5.,0.8
1981-08-30 09:03:00.850 ,3,0,0.,0.8,0.,0.8,0.,0.8,1.,0.8
1981-08-30 09:03:01.650 ,3,0,0.,0.8,0.,0.8,0.,0.8,2.,0.8
1981-08-30 09:03:02.450 ,3,0,0.,0.8,0.,0.8,0.,0.8,1.,0.8
1981-08-30 09:03:03.250 ,3,0,0.,0.8,0.,0.8,0.,0.8,0.,0.8
1981-08-30 09:03:04.050 ,3,0,0.,0.8,0.,0.8,0.,0.8,5.,0.8
1981-08-30 09:03:04.850 ,3,0,0.,0.8,0.,0.8,0.,0.8,5.,0.8
1981-08-30 09:03:05.650 ,3,0,0.,0.8,0.,0.8,0.,0.8,4.,0.8
1981-08-30 09:03:06.450 ,3,0,0.,0.8,0.,0.8,0.,0.8,1.,0.8
1981-08-30 09:03:07.250 ,3,0,0.,0.8,0.,0.8,0.,0.8,3.,0.8
1981-08-30 09:03:08.050 ,3,0,0.,0.8,0.,0.8,0.,0.8,1.,0.8
1981-08-30 09:03:08.850 ,3,0,0.,0.8,0.,0.8,0.,0.8,3.,0.8
1981-08-30 09:03:09.650 ,3,0,0.,0.8,0.,0.8,0.,0.8,2.,0.8
1981-08-30 09:03:10.450 ,3,0,0.,0.8,0.,0.8,0.,0.8,2.,0.8
1981-08-30 09:03:11.250 ,2,0,0.,0.8,0.,0.8,0.,0.8,1.,0.8
1981-08-30 09:03:12.050 ,2,0,0.,0.8,0.,0.8,0.,0.8,4.,0.8
1981-08-30 09:03:12.850 ,2,0,0.,0.8,0.,0.8,0.,0.8,4.,0.8
1981-08-30 09:03:13.650 ,2,0,0.,0.8,0.,0.8,0.,0.8,1.,0.8
1981-08-30 09:03:14.450 ,2,0,0.,0.8,0.,0.8,0.,0.8,0.,0.8
1981-08-30 09:03:15.250 ,2,0,0.,0.8,0.,0.8,0.,0.8,6.,0.8
1981-08-30 09:03:16.050 ,2,0,0.,0.8,0.,0.8,0.,0.8,5.,0.8
1981-08-30 09:03:16.850 ,2,0,0.,0.8,0.,0.8,0.,0.8,3.,0.8
1981-08-30 09:03:17.650 ,2,0,0.,0.8,0.,0.8,0.,0.8,6.,0.8
1981-08-30 09:03:18.450 ,2,0,0.,0.8,0.,0.8,0.,0.8,11.,0.8
1981-08-30 09:03:19.250 ,2,0,0.,0.8,0.,0.8,0.,0.8,4.,0.8
1981-08-30 09:03:20.050 ,2,0,0.,0.8,0.,0.8,0.,0.8,5.,0.8
1981-08-30 09:03:20.850 ,2,0,0.,0.8,0.,0.8,0.,0.8,6.,0.8
1981-08-30 09:03:21.650 ,2,0,0.,0.8,0.,0.8,0.,0.8,1.,0.8
1981-08-30 09:03:22.450 ,2,0,0.,0.8,0.,0.8,0.,0.8,0.,0.8
1981-08-30 09:03:23.250 ,2,0,0.,0.8,0.,0.8,0.,0.8,3.,0.8
1981-08-30 09:03:24.050 ,2,0,0.,0.8,0.,0.8,0.,0.8,2.,0.8
1981-08-30 09:03:24.850 ,2,0,0.,0.8,0.,0.8,0.,0.8,2.,0.8
1981-08-30 09:03:25.650 ,2,0,0.,0.8,0.,0.8,0.,0.8,6.,0.8
1981-08-30 09:03:26.450 ,2,0,0.,0.8,0.,0.8,0.,0.8,4.,0.8
1981-08-30 09:03:27.250 ,2,0,0.,0.8,0.,0.8,0.,0.8,2.,0.8
1981-08-30 09:03:28.050 ,2,0,0.,0.8,0.,0.8,0.,0.8,3.,0.8
1981-08-30 09:03:28.850 ,2,0,0.,0.8,0.,0.8,0.,0.8,3.,0.8
1981-08-30 09:03:29.650 ,2,0,0.,0.8,0.,0.8,0.,0.8,1.,0.8
1981-08-30 09:03:30.450 ,2,0,0.,0.8,0.,0.8,0.,0.8,0.,0.8
1981-08-30 09:03:31.250 ,2,0,0.,0.8,0.,0.8,0.,0.8,3.,0.8
1981-08-30 09:03:32.050 ,2,0,0.,0.8,0.,0.8,0.,0.8,4.,0.8
1981-08-30 09:03:32.850 ,2,0,0.,0.8,0.,0.8,0.,0.8,3.,0.8
1981-08-30 09:03:33.650 ,2,0,0.,0.8,0.,0.8,0.,0.8,5.,0.8
1981-08-30 09:03:34.450 ,2,0,0.,0.8,0.,0.8,0.,0.8,3.,0.8
1981-08-30 09:03:35.250 ,1,0,0.,0.8,0.,0.8,0.,0.8,5.,0.8
1981-08-30 09:03:36.050 ,1,0,0.,0.8,0.,0.8,0.,0.8,2.,0.8
1981-08-30 09:03:36.850 ,1,0,0.,0.8,0.,0.8,0.,0.8,2.,0.8
1981-08-30 09:03:37.650 ,1,0,0.,0.8,0.,0.8,0.,0.8,8.,0.8
1981-08-30 09:03:38.450 ,1,0,0.,0.8,0.,0.8,0.,0.8,2.,0.8
1981-08-30 09:03:39.250 ,1,0,0.,0.8,0.,0.8,0.,0.8,6.,0.8
1981-08-30 09:03:40.050 ,1,0,0.,0.8,0.,0.8,0.,0.8,3.,0.8
1981-08-30 09:03:40.850 ,1,0,0.,0.8,0.,0.8,0.,0.8,5.,0.8
1981-08-30 09:03:41.650 ,1,0,0.,0.8,0.,0.8,0.,0.8,4.,0.8
1981-08-30 09:03:42.450 ,1,0,0.,0.8,0.,0.8,0.,0.8,4.,0.8
1981-08-30 09:03:43.250 ,1,0,0.,0.8,0.,0.8,0.,0.8,2.,0.8
1981-08-30 09:03:44.050 ,1,0,0.,0.8,0.,0.8,0.,0.8,6.,0.8
1981-08-30 09:03:44.850 ,1,0,0.,0.8,0.,0.8,0.,0.8,5.,0.8
1981-08-30 09:03:45.650 ,1,0,0.,0.8,0.,0.8,0.,0.8,0.,0.8
1981-08-30 09:03:46.450 ,1,0,0.,0.8,0.,0.8,0.,0.8,1.,0.8
1981-08-30 09:03:47.250 ,1,0,0.,0.8,0.,0.8,0.,0.8,0.,0.8
1981-08-30 09:03:48.050 ,1,0,0.,0.8,0.,0.8,0.,0.8,3.,0.8
1981-08-30 09:03:48.850 ,1,0,0.,0.8,0.,0.8,0.,0.8,5.,0.8
1981-08-30 09:03:49.650 ,1,0,0.,0.8,0.,0.8,0.,0.8,5.,0.8
1981-08-30 09:03:50.450 ,1,0,0.,0.8,0.,0.8,0.,0.8,4.,0.8
1981-08-30 09:03:51.250 ,1,0,0.,0.8,0.,0.8,0.,0.8,1.,0.8
1981-08-30 09:03:52.050 ,1,0,0.,0.8,0.,0.8,0.,0.8,3.,0.8
1981-08-30 09:03:52.850 ,1,0,0.,0.8,0.,0.8,0.,0.8,2.,0.8
1981-08-30 09:03:53.650 ,1,0,0.,0.8,0.,0.8,0.,0.8,1.,0.8
1981-08-30 09:03:54.450 ,1,0,0.,0.8,0.,0.8,0.,0.8,7.,0.8
1981-08-30 09:03:55.250 ,1,0,0.,0.8,0.,0.8,0.,0.8,2.,0.8
1981-08-30 09:03:56.050 ,1,0,0.,0.8,0.,0.8,0.,0.8,2.,0.8
1981-08-30 09:03:56.850 ,1,0,0.,0.8,0.,0.8,0.,0.8,2.,0.8
1981-08-30 09:03:57.650 ,1,0,0.,0.8,0.,0.8,0.,0.8,8.,0.8
1981-08-30 09:03:58.450 ,1,0,0.,0.8,0.,0.8,0.,0.8,2.,0.8
1981-08-30 09:03:59.250 ,0,0,0.,0.8,0.,0.8,0.,0.8,3.,0.8
1981-08-30 09:04:00.050 ,0,0,0.,0.8,0.,0.8,0.,0.8,4.,0.8
1981-08-30 09:04:00.850 ,0,0,0.,0.8,0.,0.8,0.,0.8,5.,0.8
1981-08-30 09:04:01.650 ,0,0,0.,0.8,0.,0.8,0.,0.8,2.,0.8
1981-08-30 09:04:02.450 ,0,0,0.,0.8,0.,0.8,0.,0.8,5.,0.8
1981-08-30 09:04:03.250 ,0,0,0.,0.8,0.,0.8,0.,0.8,1.,0.8
1981-08-30 09:04:04.050 ,0,0,0.,0.8,0.,0.8,0.,0.8,3.,0.8
1981-08-30 09:04:04.850 ,0,0,0.,0.8,0.,0.8,0.,0.8,3.,0.8
1981-08-30 09:04:05.650 ,0,0,0.,0.8,0.,0.8,0.,0.8,4.,0.8
1981-08-30 09:04:06.450 ,0,0,0.,0.8,0.,0.8,0.,0.8,2.,0.8
1981-08-30 09:04:07.250 ,0,0,0.,0.8,0.,0.8,0.,0.8,2.,0.8
1981-08-30 09:04:08.050 ,0,0,0.,0.8,0.,0.8,0.,0.8,1.,0.8
1981-08-30 09:04:08.850 ,0,0,0.,0.8,0.,0.8,0.,0.8,2.,0.8
1981-08-30 09:04:09.650 ,0,0,0.,0.8,0.,0.8,0.,0.8,1.,0.8
1981-08-30 09:04:10.450 ,0,0,0.,0.8,0.,0.8,0.,0.8,3.,0.8
1981-08-30 09:04:11.250 ,0,0,0.,0.8,0.,0.8,0.,0.8,2.,0.8
1981-08-30 09:04:12.050 ,0,0,0.,0.8,0.,0.8,0.,0.8,1.,0.8
1981-08-30 09:04:12.850 ,0,0,0.,0.8,0.,0.8,0.,0.8,2.,0.8
1981-08-30 09:04:13.650 ,0,0,0.,0.8,0.,0.8,0.,0.8,1.,0.8
1981-08-30 09:04:14.450 ,0,0,0.,0.8,0.,0.8,0.,0.8,1.,0.8
1981-08-30 09:04:15.250 ,0,0,0.,0.8,0.,0.8,0.,0.8,4.,0.8
1981-08-30 09:04:16.050 ,0,0,0.,0.8,0.,0.8,0.,0.8,3.,0.8
1981-08-30 09:04:16.850 ,0,0,0.,0.8,0.,0.8,0.,0.8,1.,0.8
1981-08-30 09:04:17.650 ,0,0,0.,0.8,0.,0.8,0.,0.8,4.,0.8
1981-08-30 09:04:18.450 ,0,0,0.,0.8,0.,0.8,0.,0.8,4.,0.8
1981-08-30 09:04:19.250 ,0,0,0.,0.8,0.,0.8,0.,0.8,6.,0.8
1981-08-30 09:04:20.050 ,0,0,0.,0.8,0.,0.8,0.,0.8,3.,0.8
1981-08-30 09:04:20.850 ,0,0,0.,0.8,0.,0.8,0.,0.8,2.,0.8
1981-08-30 09:04:21.650 ,0,0,0.,0.8,0.,0.8,0.,0.8,1.,0.8
1981-08-30 09:04:22.450 ,0,0,0.,0.8,0.,0.8,0.,0.8,4.,0.8
1981-08-30 09:04:23.250 ,0,0,0.,0.8,0.,0.8,0.,0.8,1.,0.8
1981-08-30 09:04:24.050 ,0,0,0.,0.8,0.,0.8,0.,0.8,3.,0.8
1981-08-30 09:04:24.850 ,0,0,0.,0.8,0.,0.8,0.,0.8,2.,0.8
1981-08-30 09:04:25.650 ,0,0,0.,0.8,0.,0.8,0.,0.8,0.,0.8
1981-08-30 09:04:26.450 ,0,0,0.,0.8,0.,0.8,0.,0.8,2.,0.8
1981-08-30 09:04:27.250 ,0,0,0.,0.8,0.,0.8,0.,0.8,2.,0.8
1981-08-30 09:04:28.050 ,0,0,0.,0.8,0.,0.8,0.,0.8,2.,0.8
1981-08-30 09:04:28.850 ,0,0,0.,0.8,0.,0.8,0.,0.8,1.,0.8
1981-08-30 09:04:29.650 ,0,0,0.,0.8,0.,0.8,0.,0.8,3.,0.8
1981-08-30 09:04:30.450 ,0,0,0.,0.8,0.,0.8,0.,0.8,3.,0.8
1981-08-30 09:04:31.250 ,0,0,0.,0.8,0.,0.8,0.,0.8,3.,0.8
1981-08-30 09:04:32.050 ,0,0,0.,0.8,0.,0.8,0.,0.8,1.,0.8
1981-08-30 09:04:32.850 ,0,0,0.,0.8,0.,0.8,0.,0.8,1.,0.8
1981-08-30 09:04:33.650 ,0,0,0.,0.8,0.,0.8,0.,0.8,2.,0.8
1981-08-30 09:04:34.450 ,0,0,0.,0.8,0.,0.8,0.,0.8,3.,0.8
1981-08-30 09:04:35.250 ,0,0,0.,0.8,0.,0.8,0.,0.8,3.,0.8
1981-08-30 09:04:36.050 ,0,0,0.,0.8,0.,0.8,0.,0.8,4.,0.8
1981-08-30 09:04:36.850 ,0,0,0.,0.8,0.,0.8,0.,0.8,5.,0.8
1981-08-30 09:04:37.650 ,0,0,0.,0.8,0.,0.8,0.,0.8,2.,0.8
1981-08-30 09:04:38.450 ,0,0,0.,0.8,0.,0.8,0.,0.8,3.,0.8
1981-08-30 09:04:39.250 ,0,0,0.,0.8,0.,0.8,0.,0.8,1.,0.8
1981-08-30 09:04:40.050 ,0,0,0.,0.8,0.,0.8,0.,0.8,1.,0.8
1981-08-30 09:04:40.850 ,0,0,0.,0.8,0.,0.8,0.,0.8,2.,0.8
1981-08-30 09:04:41.650 ,0,0,0.,0.8,0.,0.8,0.,0.8,2.,0.8
1981-08-30 09:04:42.450 ,0,0,0.,0.8,0.,0.8,0.,0.8,4.,0.8
1981-08-30 09:04:43.250 ,0,0,0.,0.8,0.,0.8,0.,0.8,1.,0.8
1981-08-30 09:04:44.050 ,0,0,0.,0.8,0.,0.8,0.,0.8,2.,0.8
1981-08-30 09:04:44.850 ,0,0,0.,0.8,0.,0.8,0.,0.8,0.,0.8
1981-08-30 09:04:45.650 ,0,0,0.,0.8,0.,0.8,0.,0.8,7.,0.8
1981-08-30 09:04:46.450 ,0,0,0.,0.8,0.,0.8,0.,0.8,4.,0.8
1981-08-30 09:04:47.250 ,1,0,0.,0.8,0.,0.8,0.,0.8,3.,0.8
1981-08-30 09:04:48.050 ,1,0,0.,0.8,0.,0.8,0.,0.8,2.,0.8
1981-08-30 09:04:48.850 ,1,0,0.,0.8,0.,0.8,0.,0.8,5.,0.8
1981-08-30 09:04:49.650 ,1,0,0.,0.8,0.,0.8,0.,0.8,1.,0.8
1981-08-30 09:04:50.450 ,1,0,0.,0.8,0.,0.8,0.,0.8,3.,0.8
1981-08-30 09:04:51.250 ,1,0,0.,0.8,0.,0.8,0.,0.8,5.,0.8
1981-08-30 09:04:52.050 ,1,0,0.,0.8,0.,0.8,0.,0.8,5.,0.8
1981-08-30 09:04:52.850 ,1,0,0.,0.8,0.,0.8,0.,0.8,3.,0.8
1981-08-30 09:04:53.650 ,1,0,0.,0.8,0.,0.8,0.,0.8,7.,0.8
1981-08-30 09:04:54.450 ,1,0,0.,0.8,0.,0.8,0.,0.8,0.,0.8
1981-08-30 09:04:55.250 ,1,0,0.,0.8,0.,0.8,0.,0.8,3.,0.8
1981-08-30 09:04:56.050 ,1,0,0.,0.8,0.,0.8,0.,0.8,3.,0.8
1981-08-30 09:04:56.850 ,1,0,0.,0.8,0.,0.8,0.,0.8,4.,0.8
1981-08-30 09:04:57.650 ,1,0,0.,0.8,0.,0.8,0.,0.8,2.,0.8
1981-08-30 09:04:58.450 ,1,0,0.,0.8,0.,0.8,0.,0.8,2.,0.8
1981-08-30 09:04:59.250 ,1,0,0.,0.8,0.,0.8,0.,0.8,3.,0.8
1981-08-30 09:05:00.050 ,1,0,0.,0.8,0.,0.8,0.,0.8,2.,0.8
1981-08-30 09:05:00.850 ,1,0,0.,0.8,0.,0.8,0.,0.8,1.,0.8
1981-08-30 09:05:01.650 ,1,0,0.,0.8,0.,0.8,0.,0.8,1.,0.8
1981-08-30 09:05:02.450 ,1,0,0.,0.8,0.,0.8,0.,0.8,2.,0.8
1981-08-30 09:05:03.250 ,1,0,0.,0.8,0.,0.8,0.,0.8,3.,0.8
1981-08-30 09:05:04.050 ,1,0,0.,0.8,0.,0.8,0.,0.8,1.,0.8
1981-08-30 09:05:04.850 ,1,0,0.,0.8,0.,0.8,0.,0.8,4.,0.8
1981-08-30 09:05:05.650 ,1,0,0.,0.8,0.,0.8,0.,0.8,1.,0.8
1981-08-30 09:05:06.450 ,1,0,0.,0.8,0.,0.8,0.,0.8,3.,0.8
1981-08-30 09:05:07.250 ,1,0,0.,0.8,0.,0.8,0.,0.8,3.,0.8
1981-08-30 09:05:08.050 ,1,0,0.,0.8,0.,0.8,0.,0.8,5.,0.8
1981-08-30 09:05:08.850 ,1,0,0.,0.8,0.,0.8,0.,0.8,5.,0.8
1981-08-30 09:05:09.650 ,1,0,0.,0.8,0.,0.8,0.,0.8,3.,0.8
1981-08-30 09:05:10.450 ,1,0,0.,0.8,0.,0.8,0.,0.8,3.,0.8
1981-08-30 09:05:11.250 ,2,0,0.,0.8,0.,0.8,0.,0.8,2.,0.8
1981-08-30 09:05:12.050 ,2,0,0.,0.8,0.,0.8,0.,0.8,6.,0.8
1981-08-30 09:05:12.850 ,2,0,0.,0.8,0.,0.8,0.,0.8,6.,0.8
1981-08-30 09:05:13.650 ,2,0,0.,0.8,0.,0.8,0.,0.8,1.,0.8
1981-08-30 09:05:14.450 ,2,0,0.,0.8,0.,0.8,0.,0.8,6.,0.8
1981-08-30 09:05:15.250 ,2,0,0.,0.8,0.,0.8,0.,0.8,3.,0.8
1981-08-30 09:05:16.050 ,2,0,0.,0.8,0.,0.8,0.,0.8,2.,0.8
1981-08-30 09:05:16.850 ,2,0,0.,0.8,0.,0.8,0.,0.8,2.,0.8
1981-08-30 09:05:17.650 ,2,0,0.,0.8,0.,0.8,0.,0.8,3.,0.8
1981-08-30 09:05:18.450 ,2,0,0.,0.8,0.,0.8,0.,0.8,1.,0.8
1981-08-30 09:05:19.250 ,2,0,0.,0.8,0.,0.8,0.,0.8,4.,0.8
1981-08-30 09:05:20.050 ,2,0,0.,0.8,0.,0.8,0.,0.8,5.,0.8
1981-08-30 09:05:20.850 ,2,0,0.,0.8,0.,0.8,0.,0.8,4.,0.8
1981-08-30 09:05:21.650 ,2,0,0.,0.8,0.,0.8,0.,0.8,4.,0.8
1981-08-30 09:05:22.450 ,2,0,0.,0.8,0.,0.8,0.,0.8,6.,0.8
1981-08-30 09:05:23.250 ,2,0,0.,0.8,0.,0.8,0.,0.8,4.,0.8
1981-08-30 09:05:24.050 ,2,0,0.,0.8,0.,0.8,0.,0.8,2.,0.8
1981-08-30 09:05:24.850 ,2,0,0.,0.8,0.,0.8,0.,0.8,2.,0.8
1981-08-30 09:05:25.650 ,2,0,0.,0.8,0.,0.8,0.,0.8,2.,0.8
1981-08-30 09:05:26.450 ,2,0,0.,0.8,0.,0.8,0.,0.8,0.,0.8
1981-08-30 09:05:27.250 ,2,0,0.,0.8,0.,0.8,0.,0.8,0.,0.8
1981-08-30 09:05:28.050 ,2,0,0.,0.8,0.,0.8,0.,0.8,5.,0.8
1981-08-30 09:05:28.850 ,2,0,0.,0.8,0.,0.8,0.,0.8,2.,0.8
1981-08-30 09:05:29.650 ,2,0,0.,0.8,0.,0.8,0.,0.8,2.,0.8
1981-08-30 09:05:30.450 ,2,0,0.,0.8,0.,0.8,0.,0.8,2.,0.8
1981-08-30 09:05:31.250 ,2,0,0.,0.8,0.,0.8,0.,0.8,3.,0.8
1981-08-30 09:05:32.050 ,2,0,0.,0.8,0.,0.8,0.,0.8,1.,0.8
1981-08-30 09:05:32.850 ,2,0,0.,0.8,0.,0.8,0.,0.8,2.,0.8
1981-08-30 09:05:33.650 ,2,0,0.,0.8,0.,0.8,0.,0.8,2.,0.8
1981-08-30 09:05:34.450 ,2,0,0.,0.8,0.,0.8,0.,0.8,3.,0.8
1981-08-30 09:05:35.250 ,3,0,0.,0.8,0.,0.8,0.,0.8,4.,0.8
1981-08-30 09:05:36.050 ,3,0,0.,0.8,0.,0.8,0.,0.8,5.,0.8
1981-08-30 09:05:36.850 ,3,0,0.,0.8,0.,0.8,0.,0.8,4.,0.8
1981-08-30 09:05:37.650 ,3,0,0.,0.8,0.,0.8,0.,0.8,1.,0.8
1981-08-30 09:05:38.450 ,3,0,0.,0.8,0.,0.8,0.,0.8,5.,0.8
1981-08-30 09:05:39.250 ,3,0,0.,0.8,0.,0.8,0.,0.8,4.,0.8
1981-08-30 09:05:40.050 ,3,0,0.,0.8,0.,0.8,0.,0.8,0.,0.8
1981-08-30 09:05:40.850 ,3,0,0.,0.8,0.,0.8,0.,0.8,4.,0.8
1981-08-30 09:05:41.650 ,3,0,0.,0.8,0.,0.8,0.,0.8,8.,0.8
1981-08-30 09:05:42.450 ,3,0,0.,0.8,0.,0.8,0.,0.8,2.,0.8
1981-08-30 09:05:43.250 ,3,0,0.,0.8,0.,0.8,0.,0.8,1.,0.8
1981-08-30 09:05:44.050 ,3,0,0.,0.8,0.,0.8,0.,0.8,2.,0.8
1981-08-30 09:05:44.850 ,3,0,0.,0.8,0.,0.8,0.,0.8,2.,0.8
1981-08-30 09:05:45.650 ,3,0,0.,0.8,0.,0.8,0.,0.8,2.,0.8
1981-08-30 09:05:46.450 ,3,0,0.,0.8,0.,0.8,0.,0.8,3.,0.8
1981-08-30 09:05:47.250 ,3,0,0.,0.8,0.,0.8,0.,0.8,3.,0.8
1981-08-30 09:05:48.050 ,3,0,0.,0.8,0.,0.8,0.,0.8,1.,0.8
1981-08-30 09:05:48.850 ,3,0,0.,0.8,0.,0.8,0.,0.8,4.,0.8
1981-08-30 09:05:49.650 ,3,0,0.,0.8,0.,0.8,0.,0.8,1.,0.8
1981-08-30 09:05:50.450 ,3,0,0.,0.8,0.,0.8,0.,0.8,3.,0.8
1981-08-30 09:05:51.250 ,3,0,0.,0.8,0.,0.8,0.,0.8,3.,0.8
1981-08-30 09:05:52.050 ,3,0,0.,0.8,0.,0.8,0.,0.8,2.,0.8